Regional Weather Roundup
Issued by NWS

Home | Current Version | Previous Version | Graphics & Text | Print | Product List | Glossary On
Versions: 1 2 3 4 5 6 7 8 9 10 11 12 13 14 15 16 17 18 19 20 21 22 23 24 25 26 27 28 29 30 31 32 33 34 35 36 37 38 39 40 41 42 43 44 45 46 47 48 49 50
000
ASUS43 KFSD 031402
RWRSD

WEATHER ROUNDUP FOR SOUTH DAKOTA
NATIONAL WEATHER SERVICE SIOUX FALLS SD
900 AM CDT MON AUG 03 2015

NOTE: "FAIR" INDICATES FEW OR NO CLOUDS BELOW 12,000 FEET WITH NO
SIGNIFICANT WEATHER AND/OR OBSTRUCTIONS TO VISIBILITY.


SDZ001>005-009-010-012>017-031500-
NORTHWEST AND NORTH CENTRAL SOUTH DAKOTA

CITY           SKY/WX    TMP DP  RH WIND       PRES   REMARKS
BUFFALO          N/A     63  51  65 E7        30.00S
FAITH            N/A     67  51  56 E7        30.05R
MOBRIDGE       SUNNY     65  58  78 W7        30.01R
$$

SDZ012>016-024>037-041>051-057-063-072>074-031500-
SOUTHWEST AND SOUTH CENTRAL SOUTH DAKOTA

CITY           SKY/WX    TMP DP  RH WIND       PRES   REMARKS
RAPID CTY ARPT MOSUNNY   68  56  65 SE5       30.05S
PIERRE         SUNNY     65  56  72 CALM      30.01R
CUSTER         MOSUNNY   63  53  70 E6        30.16S
PHILIP         SUNNY     66  56  70 E6        30.03R
PINE RIDGE     MOSUNNY   71  58  63 E7        30.03S
WINNER         PTSUNNY   70  59  68 SE3       30.02R
$$

SDZ004>011-016>023-039-040-031500-
NORTHEAST SOUTH DAKOTA

CITY           SKY/WX    TMP DP  RH WIND       PRES   REMARKS
ABERDEEN       SUNNY     66  54  65 CALM      30.00R
WATERTOWN      SUNNY     67  57  70 N3        29.99R
BROOKINGS      SUNNY     66  55  68 W3        30.02R
SISSETON         N/A     69  53  56 N8        29.96R
$$

SDZ017-020-022-023-036>040-048>070-031500-
SOUTHEAST SOUTH DAKOTA

CITY           SKY/WX    TMP DP  RH WIND       PRES   REMARKS
SIOUX FALLS    MOSUNNY   68  60  75 W3        30.00R
HURON          SUNNY     66  60  81 NW3       29.99S
CHAMBERLAIN    PTSUNNY   66  60  81 CALM      30.02S
MITCHELL       SUNNY     66  61  84 CALM      30.01R
YANKTON        SUNNY     66  63  88 CALM      29.99F
$$

ABBREVIATIONS USED IN REMARKS
   TC - TEMPERATURE IN CELSIUS
  WCI - WIND CHILL INDEX
   HX - HEAT INDEX
  VSB - VISIBILITY



USA.gov is the U.S. government's official web portal to all federal, state and local government web resources and services.